Location: Roanoke
(37.2710°N, 79.9420°W)
Time: 16:24:26
(UTC-05:00)

Courier 1B Rocket - Pass Details

Date: 22 November 2019
Orbit: 920 x 1202 km, 28.2° (Epoch: 07 December)

Event Time Altitude Azimuth Distance (km) Brightness Sun altitude
Rises 11:44:32 0° 200° (SSW) 3,593 8.8 32.3°
Reaches altitude 10° 11:49:18 10° 168° (SSE) 2,706 8.8 32.4°
Maximum altitude 11:51:18 11° 150° (SSE) 2,626 8.4 32.5°
Drops below altitude 10° 11:53:21 10° 132° (SE) 2,764 8.1 32.5°
Sets 11:58:22 0° 102° (ESE) 3,798 8.2 32.5°
